Location: Baumgartsau
(48.4586°N, 14.0864°E)
Time: 17:25:18
(UTC+00:00)

STARLINK-52 - Pass Details

Date: 09 April 2020
Orbit: 392 x 395 km, 53.0° (Epoch: 29 May)

Event Time Altitude Azimuth Distance (km) Brightness Sun altitude
Rises 19:07:42 0° 237° (WSW) 2,284 7.2 -13.4°
Reaches altitude 10° 19:09:45 10° 235° (SW) 1,431 6.1 -13.7°
Maximum altitude 19:12:56 73° 152° (SSE) 418 2.8 -14.1°
Enters shadow 19:15:07 19° 69° (ENE) 1,024 4.7 -14.4°
